Deer Point Lake Weather Center

Moon Phase Calendar



Deer Point Lake Water Level
Online Cameras

 


      

Current Conditions in Lynn Haven
8/17/2022 11:23:09 PM

77°F
Feels Like 77
Clouds
Humidity
72%
Pressure
29.91"
Wind
4.6 mph (WNW)
Dew Point
67°F
UV Index
0/10 (Low)
Visibility
6 mi

Hourly Forecast

Date & Time Wed, Aug 17
11:00 PM
Thu, Aug 18
12:00 AM
Thu, Aug 18
1:00 AM
Thu, Aug 18
2:00 AM
Thu, Aug 18
3:00 AM
Thu, Aug 18
4:00 AM
Thu, Aug 18
5:00 AM
Thu, Aug 18
6:00 AM
Thu, Aug 18
7:00 AM
Thu, Aug 18
8:00 AM
Thu, Aug 18
9:00 AM
Thu, Aug 18
10:00 AM
Thu, Aug 18
11:00 AM
Thu, Aug 18
12:00 PM
Thu, Aug 18
1:00 PM
Thu, Aug 18
2:00 PM
Thu, Aug 18
3:00 PM
Thu, Aug 18
4:00 PM
Thu, Aug 18
5:00 PM
Thu, Aug 18
6:00 PM
Thu, Aug 18
7:00 PM
Thu, Aug 18
8:00 PM
Thu, Aug 18
9:00 PM
Thu, Aug 18
10:00 PM
Thu, Aug 18
11:00 PM
Fri, Aug 19
12:00 AM
Fri, Aug 19
1:00 AM
Fri, Aug 19
2:00 AM
Fri, Aug 19
3:00 AM
Fri, Aug 19
4:00 AM
Fri, Aug 19
5:00 AM
Fri, Aug 19
6:00 AM
Fri, Aug 19
7:00 AM
Fri, Aug 19
8:00 AM
Fri, Aug 19
9:00 AM
Fri, Aug 19
10:00 AM
Fri, Aug 19
11:00 AM
Fri, Aug 19
12:00 PM
Fri, Aug 19
1:00 PM
Fri, Aug 19
2:00 PM
Fri, Aug 19
3:00 PM
Fri, Aug 19
4:00 PM
Fri, Aug 19
5:00 PM
Fri, Aug 19
6:00 PM
Fri, Aug 19
7:00 PM
Fri, Aug 19
8:00 PM
Fri, Aug 19
9:00 PM
Fri, Aug 19
10:00 PM
Condition
Clouds

Clouds

Clouds

Clouds

Clouds

Clouds

Rain

Rain

Rain

Rain

Clouds

Clouds

Clouds

Clouds

Clouds

Clouds

Clouds

Clouds

Clouds

Clouds

Clouds

Clouds

Rain

Rain

Rain

Rain

Rain

Rain

Clouds

Clouds

Clouds

Clouds

Clouds

Clouds

Rain

Clouds

Clouds

Rain

Rain

Rain

Rain

Clouds

Clouds

Clouds

Clouds

Clouds

Clouds

Clouds
Temperature 77°F78°F78°F78°F78°F78°F77°F77°F77°F80°F83°F85°F86°F85°F85°F83°F83°F84°F84°F84°F83°F81°F80°F78°F78°F76°F75°F74°F75°F76°F76°F76°F78°F81°F83°F86°F89°F91°F92°F91°F90°F88°F87°F85°F83°F82°F81°F81°F
Feels Like 77°F78°F79°F79°F79°F79°F78°F78°F79°F80°F87°F89°F90°F90°F89°F86°F87°F88°F89°F90°F88°F85°F80°F79°F79°F78°F76°F76°F76°F77°F77°F77°F79°F86°F89°F92°F95°F97°F98°F96°F95°F93°F92°F91°F89°F87°F86°F85°F
Cloudiness 46%45%48%48%42%38%52%60%63%79%89%92%94%95%96%100%100%100%100%100%100%48%72%80%74%70%65%55%69%64%66%70%74%87%93%96%97%96%97%100%100%100%100%100%100%100%100%100%
Visibility 6 mi6 mi6 mi6 mi6 mi6 mi6 mi6 mi6 mi6 mi6 mi6 mi6 mi6 mi6 mi6 mi6 mi6 mi6 mi6 mi6 mi6 mi6 mi6 mi6 mi6 mi6 mi6 mi6 mi6 mi6 mi6 mi6 mi6 mi6 mi6 mi6 mi6 mi6 mi6 mi6 mi6 mi6 mi6 mi6 mi6 mi6 mi6 mi
Precipitation 53%64%62%24%29%22%37%41%45%35%11%7%15%18%19%0%0%4%4%14%16%13%47%75%78%81%85%45%37%31%24%20%36%37%57%49%46%46%46%29%21%17%32%31%28%16%14%37%
Humidity 72%73%74%75%76%78%81%83%83%75%66%60%59%60%61%64%62%61%63%66%71%76%80%86%87%89%93%94%93%90%89%87%84%76%69%63%56%50%48%49%52%56%58%63%69%73%75%78%
Dew Point 67°F68°F69°F70°F70°F70°F71°F71°F71°F71°F70°F69°F69°F70°F69°F69°F69°F69°F70°F72°F72°F72°F73°F73°F73°F73°F72°F72°F72°F72°F72°F72°F72°F73°F72°F71°F71°F70°F69°F69°F69°F70°F70°F71°F72°F72°F73°F73°F
Pressure 29.91"29.91"29.91"29.88"29.88"29.88"29.88"29.91"29.91"29.94"29.94"29.94"29.94"29.94"29.94"29.91"29.91"29.88"29.85"29.91"29.88"29.88"29.91"29.91"29.94"29.94"29.94"29.94"29.91"29.91"29.91"29.94"29.94"29.97"29.97"30"30"30"29.97"29.97"29.97"29.97"29.97"29.97"29.97"30"30"30.03"
Wind Speed 4.6 mph4.8 mph2.6 mph4.3 mph3.9 mph4.2 mph4.2 mph3.8 mph4.1 mph4 mph4.4 mph4.6 mph5.3 mph8.3 mph8.7 mph6.2 mph6.4 mph8.8 mph10.2 mph6.3 mph4.3 mph4.2 mph3.2 mph2.9 mph2 mph2.7 mph2.2 mph2.2 mph2.3 mph2.5 mph2.5 mph2.4 mph2.8 mph4.3 mph5.3 mph3.9 mph2.4 mph2.4 mph3.6 mph5.4 mph7.3 mph8 mph8 mph7.5 mph6.8 mph5.9 mph5.4 mph4.9 mph
Wind
Direction
295°
WNW
303°
WNW
305°
NW
294°
WNW
300°
WNW
310°
NW
308°
NW
304°
NW
321°
NW
319°
NW
316°
NW
310°
NW
294°
WNW
273°
W
255°
WSW
241°
WSW
243°
WSW
247°
WSW
252°
WSW
294°
WNW
218°
SW
239°
WSW
250°
WSW
298°
WNW
344°
NNW
56°
NE
81°
E
122°
ESE
190°
S
216°
SW
222°
SW
237°
WSW
233°
SW
243°
WSW
250°
WSW
275°
W
270°
W
239°
WSW
224°
SW
210°
SSW
206°
SSW
207°
SSW
209°
SSW
213°
SSW
216°
SW
215°
SW
205°
SSW
201°
SSW

Daily Forecast

Date High Low Precip. Humidity
Today
Aug 17

Rain
96 °F
74 °F
53%
37%
Thursday
Aug 18

Rain
86 °F
77 °F
78%
60%
Friday
Aug 19

Rain
92 °F
74 °F
85%
50%
Saturday
Aug 20

Rain
92 °F
78 °F
55%
47%
Sunday
Aug 21

Clouds
94 °F
76 °F
19%
42%
Monday
Aug 22

Clouds
93 °F
78 °F
28%
42%
Tuesday
Aug 23

Clouds
89 °F
75 °F
20%
51%
Wednesday
Aug 24

Rain
90 °F
75 °F
44%
52%
Thursday
Aug 25

Rain
91 °F
73 °F
60%
52%
Friday
Aug 26

Rain
92 °F
75 °F
92%
48%
Saturday
Aug 27

Rain
92 °F
74 °F
100%
50%
Sunday
Aug 28

Rain
83 °F
75 °F
100%
86%
Monday
Aug 29

Rain
89 °F
75 °F
58%
56%
Tuesday
Aug 30

Rain
88 °F
77 °F
94%
61%
Wednesday
Aug 31

Rain
91 °F
74 °F
97%
49%
Thursday
Sep 1

Rain
93 °F
75 °F
49%
42%

Temperature 8-14 Day Outlook



Precipitation 8-14 Day Outlook




Quick Links
Deer Point Lake News
Deer Point Lake Photos
Deer Point Lake Videos




About Us
Contact Us
Site Map
Search Site
Advertise With Us
   
DeerPoint.LakesOnline.com
THE DEER POINT LAKE WEBSITE

Copyright 2022, Lakes Online
Privacy    |    Legal